Home   Weather   Londrina   Past weeks

Flag for Brazil Past Weather in Londrina, Paraná, Brazil — Yesterday and Last 2 Weeks

Now
61 °F

Clear.


Feels Like: 61 °F
Forecast: 57 / 83 °F
Wind: 5 mph from East

Location: Londrina Aeroporto

Current Time: Sep 27, 2016 at 4:10:07 AM

Latest Report: Sep 27, 2016 at 3:00 AM


Visibility: 10 mi

Pressure: 30.01 "Hg (27.91 "Hg at 615m altitude)

Humidity: 68%

Dew Point: 50 °F

Location of LondrinaLocation

Past Weather in Londrina — Graph

°F

Londrina Temperature Yesterday

Maximum temperature yesterday: 82 °F (at 5:00 PM)
Minimum temperature yesterday: 55 °F (at 6:00 AM)
Average temperature yesterday: 69 °F

High & Low Weather Summary for the Past Weeks

 TemperatureHumidityPressure
High97 °F (Sep 18, 4:00 PM)100% (Sep 20, 3:00 AM)30.21 "Hg (Sep 20, 3:00 AM)
Low52 °F (Sep 15, 6:00 AM)15% (Sep 15, 2:00 PM)29.50 "Hg (Sep 12, 8:00 PM)
Average71 °F54%30.04 "Hg
* Reported Sep 12 3:00 AM — Sep 27 3:00 AM, Londrina, Weather by CustomWeather, © 2016

Note: Actual official high and low records may vary slightly from our data, if they occured in-between our weather recording intervals... More about our weather records

Advertising

Londrina Weather History for the Previous 24 Hours

Scroll right to see more
 ConditionsComfort  
Time TempWeatherWind HumidityBarometerVisibility
3:00 AM
Tue, Sep 27
61 °FClear.5 mph68%30.01 "Hg10 mi
2:00 AM64 °FClear.No wind60%30.01 "Hg10 mi
1:00 AM63 °FClear.5 mph68%30.04 "Hg10 mi
12:00 AM66 °FClear.No wind60%30.04 "Hg10 mi
11:00 PM
Mon, Sep 26
70 °FClear.3 mph50%30.04 "Hg10 mi
10:00 PM70 °FClear.1 mph50%30.04 "Hg10 mi
9:00 PM72 °FClear.2 mph47%30.04 "Hg10 mi
8:00 PM73 °FClear.3 mph44%30.04 "Hg10 mi
7:00 PM75 °FClear.2 mph41%30.01 "Hg10 mi
6:00 PM79 °FPassing clouds.5 mph39%30.01 "HgN/A
5:00 PM82 °FPassing clouds.6 mph32%29.98 "HgN/A
4:00 PM81 °FScattered clouds.3 mph32%29.98 "HgN/A
3:00 PM81 °FScattered clouds.5 mph37%30.01 "HgN/A
2:00 PM81 °FPassing clouds.3 mph42%30.04 "HgN/A
1:00 PM77 °FPassing clouds.5 mph44%30.07 "HgN/A
12:00 PM73 °FPassing clouds.7 mph50%30.09 "HgN/A
11:00 AM70 °FPassing clouds.7 mph57%30.12 "HgN/A
10:00 AM66 °FPassing clouds.9 mph60%30.12 "HgN/A
9:00 AM61 °FScattered clouds.10 mph72%30.15 "HgN/A
8:00 AM59 °FPassing clouds.10 mph77%30.12 "HgN/A
7:00 AM55 °FPassing clouds.12 mph88%30.09 "HgN/A
6:00 AM55 °FPassing clouds.7 mph88%30.07 "HgN/A
5:00 AM57 °FPassing clouds.5 mph88%30.04 "HgN/A
4:00 AM59 °FClear.No wind88%30.01 "Hg10 mi
Weather by CustomWeather, © 2016

See weather overviewHow to use our weather pages